CAPE
0 0 0 0 0 0 0 0 0 0 0 0 0 0 0 0 0 0 0 0 0 0 0 0 0 0 0 0 0 0 0 0 0 0 0 0 0 0 0 0 0 0 0 0
0 0 0 0 0 0 0 0 0 0 0 0 0 0 0 0 0 0 0 0 0 0 0 0 0 0 0 0 0 0 0 0 0 0 0 0 0 0 0 0 0 0 0 0
0 0 0 0 0 0 0 0 0 0 0 0 0 0 0 0 0 0 0 0 0 0 0 0 0 0 0 0 0 0 0 0 0 0 0 0 0 0 0 0 0 0 0 0
0 0 0 0 0 0 0 0 0 0 0 0 0 0 0 0 0 0 0 0 0 0 0 0 0 0 0 0 0 0 0 0 0 0 0 0 0 0 0 0 0 0 0 0
0 0 0 0 0 0 0 0 0 0 0 0 0 0 0 0 0 0 0 0 0 0 0 0 0 0 0 0 0 0 0 0 0 0 0 0 0 0 0 0 0 0 0 0
0 0 0 0 0 0 0 0 0 0 0 0 0 0 0 0 0 0 0 0 0 0 0 0 0 0 0 0 0 0 0 0 0 0 0 0 0 0 0 0 0 0 0 0
0 0 0 0 0 0 0 0 0 0 0 0 0 0 0 0 0 0 0 0 0 0 0 0 0 0 0 0 0 0 0 0 0 0 0 0 0 0 0 0 0 0 0 0
0 0 0 0 0 0 0 0 0 0 0 0 0 0 0 0 0 0 0 0 0 0 0 0 0 0 0 0 0 0 0 0 0 0 0 0 0 0 0 0 0 0 0 0
0 0 0 0 0 0 0 0 0 0 0 0 0 0 0 0 0 0 0 0 0 0 0 0 0 0 0 0 0 0 0 0 0 0 0 0 0 0 0 0 0 0 0 0
0 0 0 0 0 0 0 0 0 0 0 0 0 0 0 0 0 0 0 0 0 0 0 0 0 0 0 0 0 0 0 0 0 0 0 0 0 0 0 0 0 0 0 0
0 0 0 0 0 0 0 0 0 0 0 0 0 0 0 0 0 0 0 0 0 0 0 0 0 0 0 0 0 0 0 0 0 0 0 0 0 0 0 0 0 0 0 0
0 0 0 0 0 0 0 0 0 0 0 0 0 0 0 0 0 0 0 0 0 0 0 0 0 0 0 0 0 0 0 0 0 0 0 0 0 0 0 0 0 0 0 0
0 0 0 0 0 0 0 0 0 0 0 0 0 0 0 0 0 0 0 0 0 0 0 0 0 0 0 0 0 0 0 0 0 0 0 0 0 0 0 0 0 0 0 0
41 0 0 0 0 0 0 0 0 0 0 0 0 0 0 0 0 0 0 0 0 0 0 0 0 0 0 0 0 0 0 0 0 0 0 0 0 0 0 0 0 0 0 0
0 0 0 0 0 0 0 0 0 0 0 0 0 0 0 0 0 0 0 0 0 0 0 0 0 0 0 0 0 0 0 0 0 0 1 0 1 0 0 0 0 0 0 0
0 0 0 0 0 0 0 0 0 0 0 0 0 0 0 0 0 0 0 0 0 0 0 0 0 0 0 0 0 0 0 0 0 2 1 1 4 2 1 0 0 0 0 0
0 11 0 0 0 0 4 0 0 0 0 0 0 0 0 0 0 0 0 0 0 0 0 0 0 0 0 0 0 0 0 0 1 1 2 5 5 6 4 3 2 0 0 0
0 0 9 1 0 1 0 0 0 0 0 0 0 0 0 0 0 0 0 0 0 0 0 0 0 0 0 0 0 0 0 0 2 2 3 4 4 5 4 2 1 1 0 0
0 0 6 20 0 0 0 0 0 0 0 0 0 0 0 0 0 0 0 0 0 0 0 0 0 0 0 0 0 0 0 1 1 2 3 3 5 5 4 3 1 0 0 0
0 0 7 31 0 0 0 0 0 0 0 0 0 0 0 0 0 0 0 0 0 0 0 0 0 0 0 0 0 0 1 2 2 2 3 4 4 3 3 2 2 0 0 3
35 73 8 3 17 0 0 0 3 3 0 0 0 0 0 0 0 0 0 0 0 0 0 0 0 0 0 0 0 0 1 2 2 3 3 3 2 1 2 2 1 0 0 2
7 63 55 2 20 8 0 18 0 0 0 0 0 0 0 0 0 0 0 0 0 0 0 0 0 0 0 0 0 0 1 2 2 3 3 3 1 3 6 2 0 0 1 1
48 1 2 4 0 0 0 11 0 1 1 0 0 0 0 0 0 0 0 0 0 0 0 0 0 0 0 0 0 1 0 2 3 2 2 3 3 2 2 2 4 15 5 11
0 5 1 0 1 1 0 1 58 0 0 0 0 0 0 0 0 0 0 0 0 0 0 0 0 0 0 0 0 0 1 2 3 2 5 2 3 4 2 5 2 4 0 1
29 6 6 2 0 10 0 0 0 7 0 0 0 0 0 0 0 0 0 0 0 0 0 0 0 0 0 0 0 0 1 2 3 6 4 2 4 4 2 3 2 1 1 1
4 6 20 0 73 8 4 0 14 0 8 0 0 0 0 0 0 0 0 0 0 0 0 0 0 0 0 0 0 0 1 2 3 4 2 1 6 5 5 3 1 0 0 0
CIN
0 0 0 0 0 0 0 0 0 0 0 0 0 0 0 0 0 0 0 0 0 0 0 0 0 0 0 0 0 0 0 0 0 0 0 0 0 0 0 0 0 0 0 0
0 0 0 0 0 0 0 0 0 0 0 0 0 0 0 0 0 0 0 0 0 0 0 0 0 0 0 0 0 0 0 0 0 0 0 0 0 0 0 0 0 0 0 0
0 0 0 0 0 0 0 0 0 0 0 0 0 0 0 0 0 0 0 0 0 0 0 0 0 0 0 0 0 0 0 0 0 0 0 0 0 0 0 0 0 0 0 0
0 0 0 0 0 0 0 0 0 0 0 0 0 0 0 0 0 0 0 0 0 0 0 0 0 0 0 0 0 0 0 0 0 0 0 0 0 0 0 0 0 0 0 0
0 0 0 0 0 0 0 0 0 0 0 0 0 0 0 0 0 0 0 0 0 0 0 0 0 0 0 0 0 0 0 0 0 0 0 0 0 0 0 0 0 0 0 0
0 0 0 0 0 0 0 0 0 0 0 0 0 0 0 0 0 0 0 0 0 0 0 0 0 0 0 0 0 0 0 0 0 0 0 0 0 0 0 0 0 0 0 0
0 0 0 0 0 0 0 0 0 0 0 0 0 0 0 0 0 0 0 0 0 0 0 0 0 0 0 0 0 0 0 0 0 0 0 0 0 0 0 0 0 0 0 0
0 0 0 0 0 0 0 0 0 0 0 0 0 0 0 0 0 0 0 0 0 0 0 0 0 0 0 0 0 0 0 0 0 0 0 0 0 0 0 0 0 0 0 0
0 0 0 0 0 0 0 0 0 0 0 0 0 0 0 0 0 0 0 0 0 0 0 0 0 0 0 0 0 0 0 0 0 0 0 0 0 0 0 0 0 0 0 0
0 0 0 0 0 0 0 0 0 0 0 0 0 0 0 0 0 0 0 0 0 0 0 0 0 0 0 0 0 0 0 0 0 0 0 0 0 0 0 0 0 0 0 0
0 0 0 0 0 0 0 0 0 0 0 0 0 0 0 0 0 0 0 0 0 0 0 0 0 0 0 0 0 0 0 0 0 0 0 0 0 0 0 0 0 0 0 0
0 0 0 0 0 0 0 0 0 0 0 0 0 0 0 0 0 0 0 0 0 0 0 0 0 0 0 0 0 0 0 0 0 0 0 0 0 0 0 0 0 0 0 0
0 0 0 0 0 0 0 0 0 0 0 0 0 0 0 0 0 0 0 0 0 0 0 0 0 0 0 0 0 0 0 0 0 0 0 0 0 0 0 0 0 0 0 0
-63 0 0 0 0 0 0 0 0 0 0 0 0 0 0 0 0 0 0 0 0 0 0 0 0 0 0 0 0 0 0 0 0 0 0 0 0 0 0 0 0 0 0 0
0 0 0 0 0 -5 -1 0 0 0 0 0 0 0 0 0 0 0 0 0 0 0 0 0 0 0 0 0 0 0 0 0 0 0 0 0 0 0 0 -1 0 0 0 0
0 0 0 0 0 0 0 0 0 0 0 0 0 0 0 0 0 0 0 0 0 0 0 0 0 0 0 0 0 0 0 0 0 0 0 0 0 0 0 0 -1 -1 0 0
0 0 0 0 0 -4 -38 0 0 0 0 0 0 0 0 0 0 0 0 0 0 0 0 0 0 0 0 0 0 0 0 0 0 0 0 0 0 0 0 0 0 -1 0 -1
0 0 0 -2 0 -12 0 0 0 0 0 0 0 0 0 0 0 0 0 0 0 0 0 0 0 0 0 0 0 0 0 0 0 0 0 0 0 0 0 0 0 0 0 0
0 0 -1 -5 0 0 0 0 0 0 0 0 0 0 0 0 0 0 0 0 0 0 0 0 0 0 0 0 0 0 0 0 0 0 0 0 0 0 0 0 0 0 0 -1
0 0 -2 -1 0 0 0 0 0 0 0 0 0 0 0 0 0 0 0 0 0 0 0 0 0 0 0 0 0 0 0 0 0 0 0 0 0 0 0 0 0 0 -1 0
-24 -5 -5 0 -2 0 0 -7 -71 -44 0 0 0 0 0 0 0 0 0 0 0 0 0 0 0 0 0 0 0 0 0 0 0 0 0 0 0 0 0 0 0 0 0 0
-22 -8 -10 -1 -4 -6 0 -84 0 0 0 0 0 0 0 0 0 0 0 0 0 0 0 0 0 0 0 0 0 0 0 0 0 0 0 0 0 0 0 0 0 0 0 0
-1 0 0 0 -1 0 0 -184 0 -80 -73 0 0 0 0 0 0 0 0 0 0 0 0 0 0 0 0 0 0 0 0 0 0 0 0 0 0 0 0 0 0 0 0 0
0 0 0 0 -2 0 0 -14 -47 0 0 0 0 0 0 0 0 0 0 0 0 0 0 0 0 0 0 0 0 0 0 0 0 0 0 0 0 0 0 0 0 0 0 0
-3 0 0 0 0 -2 0 0 0 -35 0 0 0 0 0 0 0 0 0 0 0 0 0 0 0 0 0 -1 0 0 0 0 0 0 0 0 0 0 0 0 0 0 0 0
-9 -11 -1 0 -8 -1 0 0 -108 0 -65 0 0 0 0 0 0 0 0 0 0 0 0 0 0 0 0 0 0 0 0 0 0 0 0 0 0 0 0 0 0 0 0 0
Wind_Speed
4 3 8 12 9 6 4 1 2 4 5 2 7 7 10 10 6 6 7 9 10 10 8 8 8 8 6 3 0 2 3 7 4 2 3 3 3 4 3 3 6 4 4 6
5 7 14 9 7 8 4 2 4 6 3 2 5 11 10 9 8 9 11 13 12 8 8 8 8 7 5 4 1 2 5 6 5 1 2 2 3 4 4 5 5 6 4 3
7 9 5 7 7 6 4 4 4 7 3 3 5 11 6 6 4 6 7 17 14 17 12 9 8 8 6 3 2 3 3 4 4 4 3 4 3 3 4 6 6 5 6 6
7 7 5 6 7 6 4 4 1 4 5 4 5 9 6 8 14 8 9 14 15 10 8 7 8 6 5 4 5 4 0 3 3 5 3 5 4 8 8 8 8 6 7 8
9 11 6 6 6 7 7 6 4 2 1 2 3 2 10 5 7 10 8 12 9 9 9 9 8 8 6 5 5 2 2 4 4 5 5 4 7 8 9 8 9 7 8 10
9 6 4 5 1 1 4 5 7 5 4 3 6 9 7 4 6 3 5 8 11 9 8 8 7 7 4 4 3 1 1 3 6 6 7 7 8 9 9 11 11 9 8 8
4 5 5 6 5 0 6 7 5 5 3 7 3 4 11 11 8 10 14 13 10 8 9 7 6 4 5 5 2 1 3 3 4 5 6 7 8 8 11 11 9 11 9 8
4 8 5 4 10 12 7 10 8 8 4 4 6 7 6 6 5 14 13 9 7 8 6 7 6 8 6 5 3 2 2 3 5 6 7 7 8 8 8 9 10 10 10 11
7 9 8 2 4 11 5 5 9 4 1 1 5 5 4 2 6 7 8 8 8 7 8 8 6 6 6 4 2 1 2 4 6 7 7 8 8 9 10 12 13 11 12 12
9 11 5 4 5 1 6 6 5 3 3 5 6 6 7 5 4 4 6 8 9 7 6 5 7 7 4 3 1 2 3 6 5 7 7 9 11 12 12 13 14 14 14 15
4 6 6 7 7 10 2 2 4 5 6 6 2 7 5 8 9 9 8 9 9 8 7 6 6 4 3 0 2 4 5 5 6 7 8 9 11 13 14 14 13 13 15 16
6 6 5 12 4 9 8 10 8 7 5 5 5 8 5 9 8 6 8 6 3 7 6 5 5 2 1 3 4 4 4 6 7 8 13 12 12 14 15 15 15 13 17 17
5 2 2 9 7 3 5 6 7 4 4 10 6 7 2 6 5 8 7 6 7 7 6 4 1 3 3 4 3 4 5 6 6 11 10 14 14 14 16 17 17 15 16 17
12 7 11 14 9 5 5 7 14 12 6 9 17 10 6 9 10 12 1 8 8 7 7 5 4 4 5 3 3 5 5 6 9 12 13 15 16 16 16 18 18 17 16 17
8 8 9 9 10 8 7 6 7 11 14 11 11 17 13 17 18 20 8 7 8 7 6 3 2 4 4 2 4 5 6 8 11 13 16 17 16 16 17 16 18 17 16 16
6 8 8 18 14 12 16 7 9 14 11 12 13 22 8 14 5 7 8 8 7 5 4 3 5 5 1 4 5 6 8 11 12 14 16 16 16 17 17 17 18 17 17 17
3 4 7 13 15 12 10 22 19 14 16 10 16 12 5 4 8 8 8 8 7 6 5 7 5 2 1 3 5 6 9 11 13 15 15 16 16 18 17 17 18 18 17 16
12 11 7 6 4 14 13 7 15 22 24 20 5 7 10 8 6 7 6 9 8 7 7 5 1 3 3 4 6 8 9 11 13 15 16 16 17 18 17 17 17 17 14 14
20 13 7 8 12 5 8 14 17 15 15 14 13 12 8 9 7 3 6 6 7 6 4 1 4 3 2 4 7 8 11 12 14 14 16 17 17 18 18 17 18 16 14 14
22 22 12 7 8 14 13 17 13 3 8 7 9 13 10 8 3 5 8 6 6 5 2 7 6 3 2 6 6 9 12 13 14 16 17 17 18 17 18 18 17 15 11 13
5 13 22 17 8 8 7 6 10 14 10 7 10 10 8 5 6 6 7 4 2 2 7 7 5 3 1 5 6 10 12 13 15 16 16 17 17 17 18 17 13 9 10 11
6 5 8 13 12 24 9 5 14 7 4 6 7 7 8 8 8 7 7 5 7 7 6 6 5 2 3 4 6 10 12 14 15 16 16 16 17 15 14 15 7 8 9 8
4 2 3 2 5 6 4 8 5 7 9 6 7 8 10 10 8 8 6 8 6 7 6 5 5 2 3 5 6 10 13 13 15 16 16 15 17 16 14 14 13 10 10 7
3 4 4 6 9 12 7 7 8 7 9 8 7 8 9 9 9 7 7 7 6 5 6 5 4 3 3 6 7 8 12 13 14 15 14 13 14 16 13 8 7 7 10 11
4 4 3 4 18 15 11 6 7 4 7 7 7 9 9 12 8 8 7 6 6 4 6 5 4 1 2 5 7 9 12 12 13 12 11 12 10 12 13 10 7 6 5 4
8 7 5 5 8 6 10 10 13 10 9 7 8 8 6 8 10 9 7 5 4 6 5 4 3 3 4 6 8 10 11 11 12 11 9 10 9 10 10 10 13 11 13 17
Wind_Direction
285 113 224 232 207 212 237 196 259 250 263 222 213 248 255 262 251 227 183 184 171 165 180 153 143 136 144 162 135 278 314 302 330 319 303 306 279 296 297 279 280 287 300 320
344 233 241 236 215 199 191 217 260 292 229 167 288 281 239 214 218 206 196 182 177 166 161 157 148 126 117 126 115 338 332 329 308 294 295 265 263 272 262 278 274 277 271 300
201 249 239 217 209 198 219 193 221 229 319 354 336 287 272 269 231 226 211 188 178 170 161 163 142 137 129 132 110 74 24 345 333 316 312 310 298 294 299 289 279 254 258 261
249 283 279 267 220 168 227 219 94 44 48 232 80 283 273 279 282 252 225 175 167 164 155 139 133 126 135 126 125 136 228 337 317 334 323 295 283 292 284 278 279 249 251 261
253 311 350 332 224 173 225 115 111 114 54 349 190 300 273 263 273 250 200 163 154 153 141 134 133 137 149 133 142 177 330 333 338 333 312 293 294 289 289 282 276 265 257 256
235 264 233 233 50 93 125 65 35 49 100 309 225 176 273 215 215 207 139 140 141 149 127 126 133 135 130 124 132 165 48 328 331 334 321 305 288 294 300 296 290 282 263 255
293 228 241 173 203 148 84 64 349 332 354 231 273 169 241 304 302 176 157 142 154 132 134 138 137 145 151 134 145 193 39 331 316 312 307 293 287 287 289 286 292 291 281 273
194 311 185 179 188 195 178 148 156 225 215 269 300 247 277 331 32 90 108 135 127 135 149 169 165 158 160 143 142 84 53 317 301 294 289 280 272 280 282 287 289 285 289 284
191 247 233 172 180 157 184 158 177 99 299 28 247 296 320 324 65 90 121 134 169 165 180 177 143 155 155 163 158 112 345 311 304 298 285 280 284 279 284 287 292 288 284 283
229 260 214 168 99 62 141 168 81 3 212 248 278 256 229 196 181 160 171 189 210 196 166 151 157 160 160 115 58 338 312 281 277 279 274 293 292 288 288 287 286 286 284 280
159 160 276 128 181 169 142 176 90 126 147 178 244 268 225 196 179 182 205 219 202 183 182 157 134 95 88 24 294 272 265 278 287 282 276 280 286 289 286 285 283 283 285 285
186 156 216 216 226 180 179 181 148 136 232 221 164 260 260 180 186 180 234 268 224 154 147 124 120 132 269 270 277 285 301 306 285 294 298 293 294 291 288 287 285 285 284 282
203 209 46 329 339 320 198 185 173 126 99 211 176 252 176 175 239 251 240 231 147 141 118 116 154 296 284 273 264 289 300 288 295 299 298 298 292 292 289 290 289 288 286 285
239 185 174 225 225 184 200 198 202 187 180 214 229 240 257 265 270 289 293 142 145 150 165 189 239 253 248 287 300 321 314 298 300 301 299 298 297 295 288 287 287 286 285 285
24 226 192 212 191 212 200 197 205 202 225 198 225 231 222 240 251 257 151 152 144 167 184 205 269 275 293 321 340 332 298 296 301 301 304 300 296 291 289 288 292 288 289 287
9 302 261 236 222 210 243 247 239 242 241 260 248 260 231 245 245 148 156 156 162 177 183 267 280 295 30 358 330 308 306 312 309 301 302 298 294 292 292 289 289 289 293 290
304 294 332 255 233 227 241 235 242 252 252 231 243 245 178 134 134 155 168 169 174 186 222 251 275 153 72 354 325 306 300 302 310 304 299 298 295 292 291 293 294 290 290 292
245 232 276 268 174 219 242 216 233 239 240 239 203 165 164 162 166 159 177 161 179 200 235 269 175 123 45 348 306 283 305 315 311 304 300 298 298 292 290 288 285 284 286 287
215 220 212 257 217 276 285 222 224 229 244 227 209 153 155 140 117 165 186 175 188 209 230 205 138 113 25 318 297 314 315 312 309 304 301 302 297 293 292 287 286 286 288 287
216 213 218 216 212 201 245 234 249 65 268 211 151 156 154 152 136 231 185 189 210 222 168 144 134 102 6 322 326 321 314 315 307 307 304 302 298 295 295 290 284 280 278 280
271 210 222 217 262 279 216 223 184 201 245 178 144 157 148 139 184 169 171 210 207 177 135 127 126 138 317 312 326 323 315 310 308 304 307 304 305 308 298 286 277 266 265 267
219 236 231 213 223 245 187 148 171 200 142 156 141 141 127 141 143 156 188 180 132 132 138 159 145 141 279 317 329 320 315 311 309 311 312 315 320 315 313 316 279 263 261 277
260 268 275 257 266 263 231 179 189 161 151 171 157 154 144 146 163 176 153 135 137 153 154 150 142 126 343 340 324 319 315 316 317 317 325 333 324 322 332 354 360 7 358 346
268 201 240 350 2 305 353 322 154 180 153 165 171 150 140 143 153 140 130 131 134 151 149 150 132 62 351 351 316 319 315 320 319 324 332 338 325 333 342 346 2 4 6 9
235 209 276 254 274 282 294 12 336 230 165 157 150 144 139 139 140 131 130 136 155 143 133 145 127 128 29 343 328 331 321 326 327 327 341 341 329 340 337 346 352 358 22 339
199 211 214 267 282 300 309 332 337 289 185 176 138 126 136 125 126 127 129 148 128 116 133 118 101 53 11 348 335 331 327 335 331 335 350 339 332 340 342 346 343 357 346 345